Sitka, Alaska, United States (99835)
Lat: 57.05N, Lon: 135.33W
Wx Zone: AKZ023
Local Info
Past Weather Observations for Wednesday, August 27, 2014

NOTE: This archive is for the closest National Weather Service station to Sitka. Information may differ from the station used for current weather conditions.

Click here for Long-term Archive

Time Weather Temperature Dewpoint Humidity Pressure Winds Precip Visibility
23:53
Partly Cloudy
50°F / 10°C 48°F / 9°C 94% 30.06 in
(1018 mb)
E 6.9 mph
(E 11 kph)
- 10SM
22:53
Clear
52°F / 11°C 52°F / 11°C 100% 30.06 in
(1018 mb)
SE 6.9 mph
(SE 11 kph)
- 10SM
21:53
Partly Cloudy
52°F / 11°C 50°F / 10°C 94% 30.06 in
(1018 mb)
E 5.8 mph
(E 9 kph)
- 10SM
20:53
Partly Cloudy
52°F / 11°C 50°F / 10°C 94% 30.09 in
(1019 mb)
ESE 5.8 mph
(ESE 9 kph)
- 10SM
19:53
Clear
54°F / 12°C 52°F / 11°C 94% 30.09 in
(1019 mb)
E 5.8 mph
(E 9 kph)
- 10SM
18:53
Partly Cloudy
57°F / 14°C 52°F / 11°C 82% 30.09 in
(1019 mb)
Calm - 10SM
17:53
Mostly Cloudy
59°F / 15°C 52°F / 11°C 77% 30.09 in
(1019 mb)
Calm - 10SM
16:53
Mostly Cloudy
61°F / 16°C 54°F / 12°C 77% 30.09 in
(1019 mb)
Calm - 10SM
15:53
Mostly Cloudy
61°F / 16°C 54°F / 12°C 77% 30.09 in
(1019 mb)
SSW 5.8 mph
(SSW 9 kph)
- 10SM
14:53
Mostly Cloudy
59°F / 15°C 54°F / 12°C 82% 30.12 in
(1020 mb)
SW 3.5 mph
(SW 6 kph)
- 10SM
13:53
Overcast
57°F / 14°C 54°F / 12°C 88% 30.12 in
(1020 mb)
SW 6.9 mph
(SW 11 kph)
- 10SM
12:53
Mostly Cloudy
57°F / 14°C 54°F / 12°C 88% 30.12 in
(1020 mb)
SW 5.8 mph
(SW 9 kph)
- 10SM
11:53
Overcast
57°F / 14°C 54°F / 12°C 88% 30.09 in
(1019 mb)
SW 3.5 mph
(SW 6 kph)
- 10SM
10:53
Mostly Cloudy
57°F / 14°C 52°F / 11°C 82% 30.09 in
(1019 mb)
Calm - 10SM
09:53
Overcast
55°F / 13°C 54°F / 12°C 94% 30.09 in
(1019 mb)
ESE 4.6 mph
(ESE 7 kph)
0.00 in
(0.00 mm)
9SM
08:53
Overcast
Light Rain
55°F / 13°C 54°F / 12°C 94% 30.09 in
(1019 mb)
Calm 0.01 in
(0.25 mm)
6SM
07:53
Overcast
Light Rain
54°F / 12°C 54°F / 12°C 100% 30.06 in
(1018 mb)
SE 5.8 mph
(SE 9 kph)
0.00 in
(0.00 mm)
6SM
07:06
Overcast
54°F / 12°C 54°F / 12°C 100% 30.06 in
(1018 mb)
E 5.8 mph
(E 9 kph)
- 10SM
06:53
Overcast
54°F / 12°C 54°F / 12°C 100% 30.06 in
(1018 mb)
ESE 3.5 mph
(ESE 6 kph)
- 10SM
05:58
Mostly Cloudy
54°F / 12°C 52°F / 11°C 94% 30.06 in
(1018 mb)
ESE 5.8 mph
(ESE 9 kph)
- 10SM
05:53
Overcast
52°F / 11°C 52°F / 11°C 100% 30.06 in
(1018 mb)
ESE 6.9 mph
(ESE 11 kph)
- 10SM
05:39
Overcast
52°F / 11°C 52°F / 11°C 100% 30.06 in
(1018 mb)
SE 4.6 mph
(SE 7 kph)
- 10SM
04:53
Mostly Cloudy
52°F / 11°C 52°F / 11°C 100% 30.06 in
(1018 mb)
E 4.6 mph
(E 7 kph)
0.00 in
(0.00 mm)
10SM
04:42
Mostly Cloudy
52°F / 11°C 52°F / 11°C 100% 30.06 in
(1018 mb)
E 4.6 mph
(E 7 kph)
0.00 in
(0.00 mm)
10SM
04:27
Mostly Cloudy
52°F / 11°C 52°F / 11°C 100% 30.06 in
(1018 mb)
E 4.6 mph
(E 7 kph)
0.00 in
(0.00 mm)
10SM
03:53
Overcast
Light Rain
52°F / 11°C 52°F / 11°C 100% 30.04 in
(1017 mb)
E 3.5 mph
(E 6 kph)
0.01 in
(0.25 mm)
8SM
03:46
Overcast
Light Rain
52°F / 11°C 52°F / 11°C 100% 30.04 in
(1017 mb)
E 5.8 mph
(E 9 kph)
0.01 in
(0.25 mm)
8SM
02:53
Mostly Cloudy
Light Rain
52°F / 11°C 52°F / 11°C 100% 30.04 in
(1017 mb)
E 4.6 mph
(E 7 kph)
0.00 in
(0.00 mm)
9SM
01:53
Partly Cloudy
52°F / 11°C 52°F / 11°C 100% 30.04 in
(1017 mb)
E 5.8 mph
(E 9 kph)
- 10SM
00:53
Overcast
54°F / 12°C 54°F / 12°C 100% 30.04 in
(1017 mb)
ENE 5.8 mph
(ENE 9 kph)
- 10SM
00:14
Overcast
54°F / 12°C 54°F / 12°C 100% 30.04 in
(1017 mb)
Calm - 10SM
Time Weather Temperature Dewpoint Humidity Pressure Winds Precip Visibility


Weather for websites

WeatherForYou.com, LLC is not responsible for any damages or problems caused by this service. Current weather conditions are obtained from the closest station including government and personal stations which may have varying degrees of accuracy. Weather forecasts are derived from the NOAA NDFD. Like all things, this site belongs to Jesus Christ... He just trusts me to maintain it. If you have any questions or comments email webmaster@weatherforyou.com

Copyright © 2014, WeatherForYou.com LLC. All rights reserved.